Simultaneous Nadir Overpasses (SNOs) Predictions

Prediction of SNOs between GOES-17 and AQUA Satellite Orbit:

Table of predicted SNOs for the next 14.0 days since TLE Epoch: 1/18/2025
Index Date Time (GOES-17) GOES-17 Lat,Lon AQUA Lat,Lon Distance(km) Time Diff (sec)
1 01/18/2025 09:13:28 0.03,-104.71 -0.64,-101.75 337.59 80
2 01/18/2025 21:33:04 -0.03,-104.65 -0.41,-106.49 208.87 80
3 01/20/2025 21:16:35 -0.03,-104.65 0.56,-101.79 324.81 80
4 01/21/2025 09:36:03 0.03,-104.73 0.40,-106.51 202.37 80
5 01/23/2025 09:14:13 0.04,-104.73 -0.60,-101.82 331.53 80
6 01/23/2025 21:33:48 -0.04,-104.66 -0.47,-106.54 215.08 80
7 01/25/2025 21:17:17 -0.04,-104.66 0.55,-101.85 319.29 80
8 01/26/2025 09:36:44 0.05,-104.73 0.43,-106.55 207.39 80
9 01/28/2025 09:14:51 0.05,-104.73 -0.55,-101.85 327.16 80
10 01/28/2025 21:34:26 -0.06,-104.65 -0.47,-106.58 219.49 80
11 01/30/2025 21:17:52 -0.06,-104.65 0.53,-101.87 315.93 80
12 01/31/2025 09:37:17 0.07,-104.72 0.46,-106.57 210.15 80
